星链-5840 (STARLINK-5840 )

导读 | 豆包AI

STARLINK-5840是美国太空探索技术公司SpaceX星链星座中的一颗卫星,于北京时间2023年7月7日发射入轨,属于星链低轨互联网星座组网卫星。星链星座旨在为全球提供高速低延迟宽带互联网服务,这颗卫星是星链大规模组网过程中的组成部分,承担星座通信覆盖的相关任务。

基本信息
目录编号:
57231
目录名称:
STARLINK-5840
国际标识:
2023-094P
轨道中心:
EARTH
卫星名称:
星链-5840
卫星全名:
星链-5840 (STARLINK-5840 )
卫星状态:
在轨 (已飞行982 天)
发射日期:
2023-07-07 UTC
国别 :
美国 (US)
星等 :
--
轨道信息
数据来源 国际轨道数据
星历时间: 2026-03-15T22:00:02+0800
9小时前
查看轨道信息
半长轴: 6891.543km
偏心率: 0.0001352
轨道倾角: 43.000°
近地点辐角 244.922°
升交点赤经 357.018°
平近点角 40.110°
近地点: 512.474km
远地点: 514.338km
周期: 94.893分钟
每日圈数: 15.174978
详细信息
固有亮度:
5
最大亮度:
2.4
卫星平台:
Starlink v1.5
覆盖范围:
全球
运营商:
太空探索技术公司
运营商所在国:
美国
制造商(研发单位):
太空探索技术公司
制造商所在国:
美国
使用方式:
暂无
卫星简介
星链(Starlink)计划是由太空探索技术公司(SpaceX)提出的一个巨型低轨卫星互联网星座项目,计划在2019年至2024年间在太空搭建由约1.2万颗卫星组成的“星链”网络,其中1584颗将部署在地球上空550千米处的近地轨道,并从2020年开始工作。该卫星仍在工作。
2D轨道图
3D轨道图
轨道高度分析图
轨道倾角分析图
轨道综合分析图
查看轨道综合分析图